Location: ČR
(50.0000°N, 15.0000°E)
Time: 06:47:06
(UTC+01:00)

ISS - Visible Passes

Search period start: 01 December 2023 00:00
Search period end: 11 December 2023 00:00
Orbit: 416 x 417 km, 51.6° (Epoch: 30 November)

Date Brightness Start Highest point End Pass type
(mag) Time Alt. Az. Time Alt. Az. Time Alt. Az.
01 Dec -3.8 16:41:11 10° WNW 16:44:32 72° N 16:47:54 10° E visible
01 Dec -2.8 18:18:01 10° W 18:21:12 40° SSW 18:21:30 39° SSW visible
02 Dec -3.2 17:29:31 10° WNW 17:32:50 58° SSW 17:35:27 15° SE visible
02 Dec -0.6 19:07:16 10° WSW 19:08:22 13° SW 19:08:22 13° SW visible
03 Dec -3.6 16:41:01 10° WNW 16:44:23 78° SSW 16:47:44 10° ESE visible
03 Dec -1.3 18:18:12 10° W 18:20:45 20° SW 18:22:28 14° S visible
04 Dec -1.8 17:29:24 10° W 17:32:23 30° SSW 17:35:21 10° SSE visible
05 Dec -2.4 16:40:42 10° W 16:43:55 43° SSW 16:47:06 10° SE visible
06 Dec -0.7 17:29:39 10° WSW 17:31:35 15° SW 17:33:30 10° S visible
07 Dec -0.9 16:40:28 10° W 16:43:07 22° SW 16:45:44 10° SSE visible
09 Dec 0.3 16:41:42 10° SW 16:41:56 10° SW 16:42:11 10° SW visible
